Location: Unspecified
(36.0740°N, 0.0000°E)
Time: 06:21:14
(UTC+00:00)

S-56A Canister/Altair - All Passes

Search period start: 04 April 2026 00:00
Search period end: 14 April 2026 00:00
Orbit: 632 x 2485 km, 38.9° (Epoch: 28 March)

Date Brightness Start Highest point End Pass type
(mag) Time Alt. Az. Time Alt. Az. Time Alt. Az.
4 Apr - 05:57:25 10° S 06:08:24 29° SE 06:20:11 10° E daylight
4 Apr - 07:59:10 10° SW 08:13:36 67° SSE 08:27:35 10° ENE daylight
4 Apr - 10:05:10 10° W 10:20:28 83° N 10:33:04 10° ENE daylight
4 Apr - 12:12:59 10° W 12:27:32 83° N 12:37:52 10° E daylight
4 Apr - 14:20:44 10° WNW 14:32:58 59° SSW 14:41:10 10° SE daylight
4 Apr - 16:30:13 10° W 16:35:43 16° SW 16:40:14 10° SSW daylight
5 Apr - 05:23:06 10° S 05:32:57 25° SE 05:43:45 10° E daylight
5 Apr - 07:23:51 10° SW 07:37:45 61° SSE 07:51:58 10° ENE daylight
5 Apr - 09:29:14 10° WSW 09:44:29 86° NNW 09:57:45 10° ENE daylight
5 Apr - 11:36:49 10° W 11:51:46 81° N 12:02:50 10° E daylight
5 Apr - 13:44:34 10° WNW 13:57:41 67° SSW 14:06:33 10° SE daylight
5 Apr - 15:53:21 10° W 16:00:54 22° SW 16:06:44 10° S daylight
6 Apr - 04:49:06 10° S 04:57:36 20° SE 05:06:59 10° E visible
6 Apr - 06:48:40 10° SW 07:01:57 56° SE 07:16:13 10° ENE daylight
6 Apr - 08:53:25 10° WSW 09:08:28 89° NNW 09:22:19 10° ENE daylight
6 Apr - 11:00:41 10° W 11:15:53 80° N 11:27:41 10° E daylight
6 Apr - 13:08:24 10° WNW 13:22:15 74° SSW 13:31:49 10° SE daylight
6 Apr - 15:16:46 10° W 15:26:01 28° SW 15:32:52 10° S daylight
7 Apr - 04:15:38 10° SSE 04:22:19 16° SE 04:29:41 10° E visible
7 Apr - 06:13:40 10° SSW 06:26:13 50° SE 06:40:20 10° ENE daylight
7 Apr - 08:17:44 10° WSW 08:32:27 87° SSE 08:46:48 10° ENE daylight
7 Apr - 10:24:37 10° W 10:39:56 79° N 10:52:27 10° E daylight
7 Apr - 12:32:15 10° WNW 12:46:42 80° SSW 12:56:59 10° ESE daylight
7 Apr - 14:40:19 10° WNW 14:51:01 34° SW 14:58:45 10° SSE daylight
8 Apr - 03:43:16 10° SE 03:47:08 12° ESE 03:51:14 10° ESE visible
8 Apr - 05:38:49 10° SSW 05:50:36 44° SE 06:04:19 10° ENE daylight
8 Apr - 07:42:12 10° WSW 07:56:26 83° SSE 08:11:11 10° ENE daylight
8 Apr - 09:48:38 10° W 10:03:55 80° N 10:17:06 10° E daylight
8 Apr - 11:56:07 10° WNW 12:11:01 85° SSW 12:22:03 10° ESE daylight
8 Apr - 14:03:58 10° WNW 14:15:54 41° SW 14:24:26 10° SSE daylight
9 Apr - 05:04:10 10° SSW 05:15:05 38° SE 05:28:09 10° ENE visible
9 Apr - 07:06:48 10° WSW 07:20:29 78° SSE 07:35:28 10° ENE daylight
9 Apr - 09:12:46 10° W 09:27:51 80° N 09:41:39 10° E daylight
9 Apr - 11:20:02 10° WNW 11:35:14 89° SSW 11:46:59 10° ESE daylight
9 Apr - 13:27:41 10° WNW 13:40:38 48° SW 13:49:58 10° SSE daylight
9 Apr - 15:39:44 10° WSW 15:43:19 12° WSW 15:46:32 10° SW daylight
10 Apr - 04:29:42 10° S 04:39:40 33° SE 04:51:49 10° ENE visible
10 Apr - 06:31:32 10° SW 06:44:35 73° SSE 06:59:39 10° ENE daylight
10 Apr - 08:36:59 10° W 08:51:44 81° N 09:06:06 10° E daylight
10 Apr - 10:44:01 10° WNW 10:59:21 87° NNE 11:11:48 10° ESE daylight
10 Apr - 12:51:28 10° WNW 13:05:15 55° SW 13:15:23 10° SE daylight
10 Apr - 15:01:41 10° W 15:08:24 17° SW 15:14:01 10° SSW daylight
11 Apr - 03:55:27 10° S 04:04:22 27° SE 04:15:18 10° E visible
11 Apr - 05:56:25 10° SW 06:08:46 68° SSE 06:23:43 10° ENE daylight
11 Apr - 08:01:20 10° W 08:15:39 83° N 08:30:26 10° E daylight
11 Apr - 10:08:04 10° WNW 10:23:22 84° NNE 10:36:30 10° ESE daylight
11 Apr - 12:15:19 10° WNW 12:29:44 62° SSW 12:40:38 10° SE daylight
11 Apr - 14:24:32 10° W 14:33:24 22° SW 14:40:32 10° S daylight
12 Apr - 03:21:29 10° S 03:29:11 22° SE 03:38:32 10° E visible
12 Apr - 05:21:27 10° SW 05:33:04 61° SSE 05:47:42 10° ENE daylight
12 Apr - 07:25:47 10° WSW 07:39:34 85° NNW 07:54:41 10° ENE daylight
12 Apr - 09:32:12 10° W 09:47:19 82° N 10:01:04 10° E daylight
12 Apr - 11:39:14 10° WNW 11:54:06 69° SSW 12:05:44 10° SE daylight
12 Apr - 13:47:46 10° W 13:58:18 27° SW 14:06:38 10° S daylight
13 Apr - 02:47:56 10° SSE 02:54:06 17° SE 03:01:23 10° E visible
13 Apr - 04:46:38 10° SW 04:57:28 55° SE 05:11:36 10° ENE visible
13 Apr - 06:50:23 10° WSW 07:03:33 88° NNW 07:18:50 10° ENE daylight
13 Apr - 08:56:25 10° W 09:11:13 81° N 09:25:31 10° E daylight
13 Apr - 11:03:14 10° WNW 11:18:21 74° SSW 11:30:42 10° SE daylight
13 Apr - 13:11:13 10° WNW 13:23:04 33° SW 13:32:27 10° SSE daylight
